Weather History for KOVS - March, 2014

Change the Weather History Date:

Monday, March 17, 2014

  Actual Average (KPDC) Record (KPDC)
Temperature  
Mean Temperature 28 °F -  
Max Temperature 39 °F 45 °F 80 °F (2012)
Min Temperature 18 °F 25 °F -4 °F (1959)
Degree Days  
Heating Degree Days 36    
Moisture  
Dew Point 14 °F    
Average Humidity 57    
Maximum Humidity 71    
Minimum Humidity 38    
Precipitation  
Precipitation 0.00 in - - ()
Sea Level Pressure  
Sea Level Pressure 29.86 in    
Wind  
Wind Speed 3 mph (South)    
Max Wind Speed 13 mph    
Max Gust Speed 20 mph    
Visibility 10 miles    
Events      
Averages and records for this station are not official NWS values.
T = Trace of Precipitation, MM = Missing Value Source: NWS Daily Summary

Daily Weather History Graph

Daily Weather History Graph

Search for Another Location

Airport or City:

Trip Planner

Search our weather history database for the weather conditions in past years. The results will help you decide how hot, cold, wet, or windy it might be!

Date:

Astronomy

Mar. 17, 2014 Rise Set
Actual Time 7:11 AM CDT 7:11 PM CDT
Civil Twilight 6:42 AM CDT 7:39 PM CDT
Nautical Twilight 6:09 AM CDT 8:13 PM CDT
Astronomical Twilight 5:36 AM CDT 8:46 PM CDT
Moon 8:31 PM CDT (3/17) 7:24 AM CDT (3/17)
Length of Visible Light 12h 56m
Length of Day
12h 00m
Full, 99% of the Moon is Illuminated
Mar 17
Full
Mar 23
Last Quarter
Mar 30
New
Apr 7
First Quarter
Apr 15
Full

Hourly Weather History & Observations

Time (CDT) Temp. Windchill Dew Point Humidity Pressure Visibility Wind Dir Wind Speed Gust Speed Precip Events Conditions
12:53 AM 19.0 °F - 8.1 °F 62% 30.17 in 10.0 mi Calm Calm - N/A   Partly Cloudy
1:53 AM 18.0 °F - 9.0 °F 68% 30.14 in 10.0 mi Calm Calm - N/A   Clear
2:53 AM 19.0 °F - 7.0 °F 59% 30.12 in 10.0 mi Calm Calm - N/A   Clear
3:53 AM 18.0 °F - 8.1 °F 65% 30.09 in 10.0 mi Calm Calm - N/A   Mostly Cloudy
4:53 AM 18.0 °F - 9.0 °F 68% 30.05 in 10.0 mi Calm Calm - N/A   Overcast
5:53 AM 19.0 °F - 10.0 °F 68% 30.03 in 10.0 mi Calm Calm - N/A   Overcast
6:53 AM 19.0 °F 13.9 °F 10.0 °F 68% 30.01 in 10.0 mi SSW 3.5 mph - N/A   Mostly Cloudy
7:53 AM 19.0 °F 13.9 °F 10.9 °F 71% 30.01 in 10.0 mi Variable 3.5 mph - N/A   Overcast
8:53 AM 21.0 °F 11.4 °F 10.9 °F 65% 29.99 in 8.0 mi South 8.1 mph - N/A   Overcast
9:53 AM 23.0 °F 14.7 °F 12.0 °F 63% 29.96 in 6.0 mi South 6.9 mph - N/A   Haze
10:53 AM 25.0 °F 19.3 °F 12.9 °F 60% 29.90 in 10.0 mi Variable 4.6 mph 18.4 mph N/A   Overcast
11:53 AM 28.0 °F 19.3 °F 14.0 °F 56% 29.88 in 10.0 mi SSE 9.2 mph 18.4 mph N/A   Overcast
12:53 PM 32.0 °F 25.6 °F 15.1 °F 50% 29.84 in 10.0 mi Variable 6.9 mph - N/A   Overcast
1:53 PM 33.1 °F 24.4 °F 15.1 °F 48% 29.79 in 10.0 mi South 11.5 mph 19.6 mph N/A   Overcast
2:53 PM 36.0 °F 30.3 °F 17.1 °F 46% 29.78 in 10.0 mi Variable 6.9 mph 17.3 mph N/A   Overcast
3:53 PM 39.9 °F 32.5 °F 16.0 °F 38% 29.53 in 10.0 mi SSW 12.7 mph 17.3 mph 0.00 in   Clear
4:53 PM 39.0 °F 32.8 °F 15.1 °F 38% 29.53 in 7.0 mi SSE 9.2 mph - N/A   Clear
5:53 PM 39.0 °F 32.8 °F 16.0 °F 39% 29.53 in 10.0 mi SSW 9.2 mph - N/A   Partly Cloudy
6:53 PM 37.0 °F 34.5 °F 16.0 °F 42% 29.73 in 10.0 mi Variable 3.5 mph - N/A   Clear
7:53 PM 35.1 °F 32.2 °F 18.0 °F 50% 29.74 in 10.0 mi Variable 3.5 mph - N/A   Clear
8:53 PM 34.0 °F - 18.0 °F 52% 29.75 in 10.0 mi Calm Calm - N/A   Clear
9:53 PM 30.9 °F 27.5 °F 19.0 °F 61% 29.76 in 10.0 mi East 3.5 mph - N/A   Clear
10:53 PM 28.9 °F - 19.9 °F 69% 29.77 in 9.0 mi Calm Calm - N/A   Clear
11:53 PM 30.0 °F - 21.0 °F 69% 29.53 in 10.0 mi Calm Calm - N/A   Clear